QPF
0.00 0.01 0.01 0.01 0.00 0.00 0.00 0.00 0.00 0.00 0.00 0.00 0.00 0.00 0.00 0.00 0.00 0.00 0.00 0.00 0.00 0.00 0.00 0.00 0.00 0.00 0.00 0.00 0.00 0.00 0.00 0.00 0.00 0.00 0.00 0.00 0.00 0.00 0.00 0.00 0.00 0.00 0.00 0.00 0.00 0.00 0.00 0.00 0.00 0.00 0.00 0.00 0.00 0.00
0.00 0.01 0.01 0.01 0.01 0.00 0.00 0.00 0.01 0.00 0.00 0.00 0.00 0.00 0.00 0.00 0.00 0.00 0.00 0.00 0.01 0.01 0.00 0.00 0.00 0.00 0.00 0.00 0.00 0.00 0.00 0.00 0.00 0.00 0.00 0.00 0.00 0.00 0.00 0.00 0.00 0.00 0.00 0.00 0.00 0.01 0.00 0.00 0.00 0.00 0.00 0.00 0.00 0.00
0.01 0.02 0.02 0.02 0.02 0.01 0.01 0.00 0.00 0.00 0.00 0.00 0.00 0.00 0.00 0.00 0.00 0.00 0.00 0.00 0.01 0.01 0.00 0.00 0.00 0.00 0.00 0.00 0.00 0.00 0.00 0.00 0.00 0.00 0.00 0.00 0.00 0.00 0.00 0.00 0.00 0.00 0.00 0.00 0.00 0.00 0.00 0.00 0.00 0.00 0.00 0.00 0.00 0.00
0.00 0.00 0.00 0.01 0.01 0.01 0.01 0.01 0.00 0.00 0.00 0.01 0.00 0.00 0.00 0.00 0.00 0.00 0.00 0.00 0.01 0.00 0.00 0.00 0.00 0.00 0.00 0.00 0.00 0.00 0.00 0.00 0.00 0.00 0.00 0.00 0.00 0.00 0.00 0.00 0.00 0.00 0.00 0.00 0.00 0.00 0.00 0.00 0.00 0.00 0.00 0.00 0.00 0.00
0.00 0.00 0.00 0.00 0.01 0.02 0.02 0.01 0.01 0.00 0.00 0.01 0.00 0.00 0.00 0.00 0.00 0.00 0.00 0.00 0.00 0.01 0.00 0.00 0.00 0.00 0.00 0.00 0.00 0.00 0.00 0.00 0.00 0.00 0.00 0.00 0.00 0.00 0.00 0.00 0.00 0.00 0.00 0.00 0.00 0.00 0.00 0.00 0.00 0.00 0.00 0.00 0.00 0.00
0.00 0.00 0.00 0.00 0.00 0.00 0.00 0.01 0.01 0.01 0.02 0.01 0.01 0.00 0.00 0.00 0.00 0.00 0.00 0.00 0.00 0.00 0.01 0.00 0.00 0.00 0.00 0.00 0.00 0.00 0.00 0.00 0.00 0.00 0.00 0.00 0.00 0.00 0.00 0.00 0.00 0.00 0.00 0.00 0.00 0.00 0.00 0.00 0.00 0.00 0.00 0.00 0.00 0.00
0.00 0.00 0.00 0.01 0.00 0.01 0.01 0.01 0.00 0.01 0.01 0.01 0.00 0.00 0.00 0.00 0.00 0.00 0.00 0.00 0.00 0.02 0.02 0.00 0.00 0.00 0.00 0.00 0.00 0.00 0.00 0.00 0.02 0.04 0.02 0.00 0.00 0.00 0.00 0.00 0.00 0.00 0.00 0.00 0.00 0.00 0.00 0.00 0.00 0.00 0.00 0.00 0.00 0.00
0.00 0.00 0.00 0.01 0.01 0.00 0.01 0.02 0.01 0.00 0.00 0.00 0.00 0.00 0.00 0.00 0.00 0.00 0.00 0.00 0.00 0.01 0.02 0.01 0.00 0.00 0.00 0.01 0.00 0.00 0.00 0.00 0.01 0.03 0.02 0.00 0.00 0.00 0.01 0.00 0.00 0.00 0.00 0.00 0.00 0.00 0.00 0.00 0.00 0.00 0.00 0.00 0.00 0.00
0.00 0.00 0.00 0.00 0.01 0.00 0.01 0.01 0.00 0.00 0.00 0.00 0.00 0.00 0.00 0.00 0.00 0.00 0.00 0.01 0.03 0.03 0.02 0.01 0.00 0.02 0.03 0.04 0.00 0.00 0.00 0.03 0.00 0.00 0.00 0.01 0.02 0.01 0.00 0.00 0.00 0.00 0.00 0.00 0.00 0.00 0.00 0.00 0.00 0.00 0.00 0.00 0.00 0.00
0.00 0.00 0.00 0.00 0.00 0.01 0.01 0.01 0.01 0.00 0.00 0.00 0.01 0.02 0.02 0.03 0.00 0.01 0.01 0.05 0.06 0.04 0.01 0.01 0.01 0.03 0.04 0.08 0.09 0.02 0.02 0.07 0.09 0.01 0.01 0.01 0.01 0.00 0.00 0.00 0.00 0.00 0.00 0.00 0.00 0.00 0.00 0.00 0.00 0.00 0.01 0.00 0.00 0.00
0.00 0.00 0.00 0.00 0.00 0.01 0.02 0.01 0.00 0.00 0.00 0.02 0.03 0.05 0.09 0.05 0.04 0.09 0.06 0.04 0.02 0.01 0.00 0.00 0.00 0.01 0.01 0.03 0.13 0.12 0.09 0.12 0.16 0.02 0.02 0.03 0.01 0.00 0.00 0.00 0.00 0.00 0.00 0.00 0.00 0.00 0.00 0.00 0.00 0.00 0.00 0.00 0.00 0.00
0.00 0.00 0.00 0.00 0.00 0.01 0.01 0.00 0.00 0.01 0.05 0.04 0.03 0.03 0.04 0.08 0.06 0.07 0.06 0.05 0.01 0.01 0.02 0.04 0.02 0.00 0.00 0.05 0.10 0.17 0.11 0.06 0.05 0.01 0.01 0.01 0.09 0.07 0.01 0.01 0.01 0.00 0.00 0.00 0.00 0.00 0.00 0.00 0.00 0.00 0.00 0.00 0.00 0.00
0.01 0.00 0.00 0.01 0.02 0.01 0.01 0.00 0.00 0.01 0.01 0.02 0.03 0.08 0.06 0.05 0.04 0.01 0.02 0.04 0.05 0.03 0.06 0.11 0.10 0.01 0.02 0.03 0.04 0.11 0.13 0.07 0.05 0.06 0.06 0.10 0.12 0.13 0.05 0.02 0.01 0.01 0.04 0.05 0.04 0.03 0.00 0.00 0.02 0.01 0.00 0.00 0.00 0.01
0.00 0.00 0.00 0.01 0.01 0.01 0.00 0.00 0.00 0.00 0.02 0.03 0.01 0.01 0.01 0.03 0.02 0.00 0.00 0.04 0.08 0.07 0.10 0.09 0.06 0.02 0.02 0.06 0.06 0.12 0.06 0.05 0.07 0.08 0.18 0.18 0.14 0.11 0.04 0.00 0.05 0.06 0.03 0.09 0.14 0.08 0.01 0.02 0.08 0.14 0.18 0.10 0.08 0.12
0.00 0.00 0.00 0.01 0.02 0.00 0.00 0.00 0.00 0.01 0.04 0.01 0.01 0.01 0.02 0.02 0.02 0.03 0.02 0.02 0.04 0.07 0.05 0.08 0.10 0.06 0.04 0.06 0.04 0.06 0.03 0.05 0.10 0.15 0.17 0.18 0.16 0.06 0.02 0.00 0.00 0.01 0.00 0.01 0.02 0.10 0.02 0.02 0.02 0.06 0.16 0.16 0.07 0.02
0.00 0.01 0.03 0.01 0.01 0.00 0.00 0.00 0.01 0.03 0.03 0.02 0.01 0.00 0.04 0.09 0.07 0.04 0.05 0.08 0.10 0.11 0.09 0.07 0.12 0.08 0.06 0.03 0.04 0.03 0.03 0.09 0.11 0.08 0.06 0.07 0.05 0.03 0.08 0.08 0.09 0.04 0.04 0.03 0.05 0.11 0.04 0.00 0.03 0.04 0.06 0.04 0.01 0.00
0.01 0.06 0.00 0.00 0.00 0.00 0.00 0.03 0.04 0.03 0.02 0.02 0.01 0.01 0.01 0.01 0.01 0.03 0.02 0.03 0.10 0.18 0.13 0.14 0.11 0.02 0.01 0.03 0.04 0.09 0.06 0.05 0.03 0.02 0.01 0.01 0.02 0.06 0.11 0.09 0.11 0.09 0.05 0.03 0.03 0.05 0.05 0.05 0.07 0.05 0.02 0.02 0.01 0.00
0.05 0.01 0.00 0.00 0.00 0.01 0.01 0.01 0.02 0.01 0.01 0.00 0.01 0.01 0.00 0.01 0.01 0.00 0.00 0.05 0.11 0.17 0.20 0.16 0.11 0.09 0.08 0.10 0.10 0.11 0.03 0.00 0.00 0.02 0.07 0.07 0.05 0.10 0.14 0.14 0.13 0.06 0.05 0.04 0.05 0.05 0.06 0.07 0.04 0.03 0.02 0.02 0.01 0.00
0.02 0.00 0.00 0.00 0.00 0.01 0.01 0.01 0.01 0.02 0.01 0.02 0.01 0.00 0.00 0.00 0.00 0.00 0.00 0.02 0.05 0.08 0.07 0.12 0.17 0.17 0.12 0.13 0.13 0.09 0.03 0.03 0.03 0.10 0.10 0.04 0.07 0.11 0.09 0.09 0.08 0.08 0.07 0.08 0.06 0.05 0.05 0.04 0.03 0.01 0.00 0.00 0.00 0.00
0.00 0.00 0.00 0.00 0.01 0.03 0.03 0.02 0.01 0.01 0.00 0.01 0.01 0.01 0.01 0.00 0.01 0.02 0.06 0.07 0.07 0.10 0.13 0.14 0.15 0.14 0.11 0.06 0.04 0.04 0.05 0.07 0.08 0.09 0.08 0.07 0.06 0.07 0.07 0.07 0.07 0.07 0.06 0.04 0.03 0.04 0.06 0.05 0.04 0.03 0.01 0.00 0.00 0.00
0.00 0.00 0.00 0.00 0.00 0.01 0.01 0.02 0.02 0.02 0.03 0.02 0.02 0.02 0.01 0.02 0.05 0.09 0.09 0.06 0.05 0.02 0.02 0.04 0.10 0.15 0.11 0.06 0.03 0.04 0.07 0.09 0.11 0.10 0.08 0.03 0.03 0.05 0.03 0.02 0.01 0.01 0.01 0.00 0.00 0.00 0.02 0.04 0.05 0.04 0.01 0.01 0.00 0.00
0.00 0.00 0.00 0.01 0.00 0.00 0.01 0.02 0.02 0.03 0.01 0.01 0.01 0.01 0.04 0.06 0.04 0.03 0.03 0.01 0.00 0.01 0.01 0.02 0.08 0.13 0.09 0.07 0.04 0.03 0.02 0.04 0.05 0.02 0.00 0.00 0.00 0.00 0.00 0.00 0.00 0.00 0.00 0.00 0.00 0.00 0.00 0.00 0.00 0.00 0.00 0.00 0.00 0.00
0.01 0.01 0.01 0.00 0.00 0.00 0.00 0.00 0.01 0.01 0.01 0.00 0.00 0.00 0.01 0.04 0.05 0.08 0.06 0.03 0.03 0.04 0.01 0.01 0.02 0.09 0.08 0.07 0.05 0.03 0.02 0.01 0.01 0.00 0.00 0.00 0.00 0.00 0.00 0.00 0.00 0.00 0.00 0.00 0.00 0.00 0.00 0.00 0.00 0.00 0.00 0.00 0.00 0.00
0.00 0.01 0.01 0.01 0.00 0.00 0.00 0.00 0.00 0.00 0.00 0.00 0.00 0.00 0.01 0.03 0.06 0.04 0.04 0.06 0.08 0.10 0.12 0.15 0.15 0.09 0.09 0.11 0.09 0.05 0.02 0.01 0.00 0.00 0.00 0.00 0.00 0.00 0.00 0.00 0.00 0.00 0.00 0.00 0.00 0.00 0.00 0.00 0.00 0.00 0.00 0.00 0.00 0.00
0.00 0.00 0.00 0.00 0.00 0.00 0.01 0.01 0.01 0.01 0.01 0.01 0.01 0.01 0.01 0.01 0.02 0.03 0.04 0.06 0.03 0.07 0.13 0.14 0.11 0.08 0.07 0.08 0.08 0.09 0.05 0.01 0.00 0.00 0.00 0.00 0.00 0.00 0.00 0.00 0.00 0.00 0.00 0.00 0.00 0.00 0.00 0.00 0.00 0.00 0.00 0.00 0.00 0.00
0.00 0.00 0.00 0.04 0.06 0.04 0.05 0.03 0.03 0.01 0.00 0.00 0.00 0.00 0.01 0.00 0.00 0.01 0.04 0.07 0.07 0.04 0.10 0.12 0.11 0.07 0.04 0.04 0.04 0.05 0.03 0.00 0.00 0.01 0.00 0.00 0.00 0.00 0.00 0.00 0.00 0.00 0.00 0.00 0.00 0.00 0.00 0.00 0.00 0.00 0.00 0.00 0.00 0.00
0.02 0.05 0.04 0.01 0.02 0.00 0.00 0.01 0.00 0.00 0.00 0.00 0.01 0.01 0.01 0.00 0.01 0.03 0.08 0.05 0.04 0.01 0.01 0.04 0.04 0.04 0.02 0.01 0.00 0.00 0.00 0.00 0.00 0.01 0.00 0.00 0.00 0.00 0.00 0.00 0.00 0.00 0.00 0.00 0.00 0.00 0.00 0.00 0.00 0.00 0.00 0.00 0.00 0.00
0.01 0.01 0.01 0.01 0.00 0.00 0.00 0.00 0.00 0.00 0.00 0.00 0.00 0.00 0.00 0.00 0.02 0.08 0.11 0.06 0.01 0.00 0.00 0.00 0.00 0.00 0.00 0.00 0.00 0.00 0.00 0.00 0.00 0.00 0.00 0.00 0.00 0.00 0.00 0.00 0.00 0.00 0.00 0.00 0.00 0.00 0.00 0.00 0.00 0.00 0.00 0.00 0.00 0.00
0.00 0.00 0.01 0.01 0.00 0.00 0.01 0.01 0.01 0.01 0.00 0.00 0.00 0.00 0.02 0.06 0.07 0.06 0.06 0.03 0.00 0.00 0.00 0.00 0.00 0.00 0.00 0.00 0.00 0.00 0.00 0.00 0.00 0.00 0.00 0.00 0.00 0.00 0.00 0.00 0.00 0.00 0.00 0.00 0.00 0.00 0.00 0.00 0.00 0.00 0.00 0.00 0.00 0.00
0.01 0.00 0.01 0.01 0.01 0.01 0.03 0.02 0.01 0.00 0.00 0.00 0.00 0.00 0.00 0.00 0.00 0.00 0.00 0.00 0.00 0.00 0.00 0.00 0.00 0.00 0.00 0.00 0.00 0.00 0.00 0.00 0.00 0.00 0.00 0.00 0.00 0.00 0.00 0.00 0.00 0.00 0.00 0.00 0.00 0.00 0.00 0.00 0.00 0.00 0.00 0.00 0.00 0.00
0.02 0.01 0.00 0.01 0.01 0.01 0.01 0.00 0.00 0.00 0.00 0.00 0.00 0.00 0.00 0.00 0.00 0.00 0.00 0.00 0.00 0.00 0.00 0.00 0.00 0.00 0.00 0.00 0.00 0.00 0.00 0.00 0.00 0.00 0.00 0.00 0.00 0.00 0.00 0.00 0.00 0.00 0.00 0.00 0.00 0.00 0.00 0.00 0.00 0.00 0.00 0.00 0.00 0.00
0.01 0.00 0.00 0.00 0.00 0.00 0.00 0.00 0.00 0.00 0.00 0.00 0.00 0.00 0.00 0.00 0.00 0.00 0.00 0.00 0.00 0.00 0.00 0.00 0.00 0.00 0.00 0.00 0.00 0.00 0.00 0.00 0.00 0.00 0.00 0.00 0.00 0.00 0.00 0.00 0.00 0.00 0.00 0.00 0.00 0.00 0.00 0.00 0.00 0.00 0.00 0.00 0.00 0.00
0.00 0.00 0.00 0.00 0.00 0.00 0.00 0.00 0.00 0.00 0.00 0.00 0.00 0.00 0.00 0.00 0.00 0.00 0.00 0.00 0.00 0.00 0.00 0.00 0.00 0.00 0.00 0.00 0.00 0.00 0.00 0.00 0.00 0.00 0.00 0.00 0.00 0.00 0.00 0.00 0.00 0.00 0.00 0.00 0.00 0.00 0.00 0.00 0.00 0.00 0.00 0.00 0.00 0.00
MSLP
1021.36 1021.31 1021.23 1021.21 1021.28 1021.29 1021.30 1021.29 1021.33 1021.35 1021.37 1021.36 1021.26 1021.08 1021.05 1020.96 1020.82 1020.34 1017.67 1017.47 1016.81 1014.85 1012.94 1012.58 1012.12 1011.59 1010.63 1010.05 1008.80 1008.20 1007.65 1007.51 1007.13 1006.29 1005.44 1004.36 1003.36 1002.62 1002.23 1002.23 1002.43 1003.03 1003.64 1003.63 1003.60 1003.29 1002.87 1003.12 1003.86 1004.24 1005.02 1005.29 1005.25 1005.28
1020.65 1020.61 1020.54 1020.53 1020.64 1020.65 1020.78 1020.89 1020.93 1020.99 1021.05 1021.08 1021.07 1020.99 1020.91 1020.86 1020.89 1020.73 1018.31 1017.32 1017.72 1017.09 1014.12 1013.73 1013.30 1012.81 1012.25 1011.66 1010.97 1009.82 1008.70 1008.11 1006.78 1006.12 1005.61 1004.94 1003.73 1002.92 1002.31 1001.67 1002.39 1003.08 1003.38 1003.26 1003.42 1003.80 1004.42 1004.39 1004.62 1004.91 1005.04 1005.27 1005.33 1005.35
1019.95 1019.86 1019.85 1019.86 1019.91 1020.05 1020.11 1020.32 1020.46 1020.59 1020.66 1020.73 1020.78 1020.81 1020.74 1020.68 1020.77 1020.77 1018.97 1018.32 1018.11 1016.62 1014.38 1012.57 1011.61 1011.27 1011.76 1011.97 1011.79 1010.94 1009.66 1009.10 1008.46 1008.21 1007.49 1005.98 1004.16 1003.23 1002.19 1001.69 1002.27 1002.53 1003.30 1003.85 1004.18 1003.64 1003.82 1004.08 1004.72 1004.70 1005.09 1005.42 1005.44 1005.26
1019.42 1019.35 1019.36 1019.36 1019.35 1019.46 1019.59 1019.72 1019.97 1020.14 1020.27 1020.33 1020.46 1020.54 1020.52 1020.54 1020.65 1020.64 1019.02 1018.08 1017.58 1016.57 1014.15 1010.73 1010.30 1010.54 1010.69 1010.75 1010.89 1011.06 1010.83 1010.09 1010.22 1009.73 1008.60 1007.09 1005.20 1004.04 1003.25 1002.47 1002.04 1002.01 1002.44 1003.23 1003.50 1003.99 1004.08 1004.01 1004.28 1004.52 1004.95 1005.61 1005.62 1005.30
1019.02 1019.02 1019.02 1018.93 1018.90 1018.95 1019.06 1019.19 1019.43 1019.64 1019.80 1019.97 1020.09 1020.23 1020.29 1020.36 1020.46 1020.12 1018.89 1018.20 1017.85 1017.37 1014.82 1012.38 1011.37 1010.83 1010.55 1010.37 1010.44 1010.40 1010.43 1010.53 1010.17 1009.76 1009.24 1007.98 1006.53 1005.23 1004.17 1003.34 1002.30 1002.28 1002.50 1002.76 1002.63 1003.22 1003.52 1003.84 1004.21 1004.65 1005.08 1005.23 1005.45 1005.07
1018.64 1018.69 1018.68 1018.53 1018.56 1018.62 1018.70 1018.79 1018.91 1019.11 1019.37 1019.54 1019.84 1019.99 1020.05 1020.19 1020.28 1019.27 1017.49 1016.72 1017.42 1017.14 1016.03 1012.79 1009.54 1009.47 1009.30 1009.26 1009.46 1010.02 1009.95 1010.03 1009.93 1009.22 1008.93 1008.53 1007.04 1005.97 1004.94 1003.34 1002.92 1002.74 1002.93 1003.08 1003.02 1003.39 1003.68 1004.19 1004.88 1005.38 1005.26 1005.17 1005.08 1004.80
1018.22 1018.24 1018.27 1018.21 1018.09 1018.13 1018.25 1018.43 1018.59 1018.80 1019.07 1019.40 1019.63 1019.79 1019.91 1020.03 1019.59 1018.78 1018.71 1019.15 1018.75 1017.58 1016.38 1012.88 1009.44 1007.40 1008.65 1008.50 1008.52 1008.79 1009.40 1009.07 1009.35 1009.35 1008.89 1008.42 1006.96 1006.09 1004.90 1003.63 1003.00 1002.45 1002.63 1003.33 1003.80 1004.01 1004.20 1004.52 1004.47 1004.58 1004.50 1004.64 1004.73 1004.72
1017.77 1017.86 1017.90 1017.92 1017.79 1017.89 1018.05 1018.23 1018.42 1018.68 1018.97 1019.27 1019.51 1019.67 1019.78 1019.87 1019.83 1018.70 1017.05 1018.12 1018.71 1017.74 1016.52 1013.38 1010.02 1008.20 1007.32 1007.24 1007.52 1007.71 1007.77 1008.23 1008.41 1009.02 1008.53 1007.84 1006.97 1005.78 1005.42 1003.76 1003.14 1002.78 1002.75 1002.90 1003.39 1003.66 1003.75 1004.06 1004.19 1004.12 1004.10 1004.03 1004.20 1004.00
1017.27 1017.43 1017.57 1017.64 1017.61 1017.66 1017.85 1018.00 1018.26 1018.57 1018.88 1019.15 1019.37 1019.51 1019.18 1019.13 1018.07 1016.49 1016.38 1017.74 1018.07 1018.17 1016.62 1013.34 1010.18 1008.17 1007.93 1007.57 1006.96 1006.86 1006.93 1007.50 1007.93 1007.03 1007.19 1007.41 1006.34 1004.62 1003.60 1003.01 1002.61 1002.46 1002.70 1003.12 1003.08 1003.26 1003.46 1003.40 1003.47 1003.46 1003.48 1003.49 1003.37 1003.30
1016.72 1016.95 1017.13 1017.27 1017.36 1017.47 1017.62 1017.81 1018.07 1018.42 1018.72 1018.99 1019.13 1018.70 1017.83 1016.37 1016.72 1016.82 1017.17 1017.08 1017.34 1016.76 1016.48 1013.98 1011.31 1009.29 1008.63 1008.89 1008.36 1007.68 1006.62 1008.08 1007.10 1006.00 1005.95 1004.92 1004.27 1003.73 1002.81 1001.93 1002.21 1002.39 1003.13 1003.44 1003.44 1003.45 1003.28 1003.01 1003.35 1003.46 1003.04 1002.89 1002.79 1002.86
1016.22 1016.48 1016.68 1016.86 1017.04 1017.16 1017.32 1017.60 1017.93 1018.34 1018.75 1018.45 1017.91 1016.96 1016.76 1016.84 1016.22 1016.04 1015.47 1015.20 1014.70 1014.72 1013.86 1011.67 1010.49 1008.87 1008.31 1008.26 1008.62 1007.77 1007.55 1006.77 1006.12 1003.92 1003.94 1004.05 1003.59 1002.28 1002.35 1002.27 1002.51 1002.79 1003.30 1003.47 1003.51 1003.62 1003.63 1003.66 1003.67 1003.44 1003.23 1003.19 1002.63 1003.07
1015.87 1016.06 1016.25 1016.47 1016.71 1016.91 1017.12 1017.40 1017.73 1017.75 1017.30 1017.58 1017.45 1017.25 1017.10 1016.24 1015.40 1014.55 1013.51 1012.82 1012.44 1010.82 1009.49 1009.34 1008.61 1008.55 1007.94 1008.97 1009.68 1009.02 1009.37 1008.48 1006.22 1004.78 1003.29 1002.20 1002.78 1001.12 1001.70 1002.15 1002.56 1003.06 1003.31 1003.31 1003.40 1003.59 1003.74 1003.80 1003.74 1003.59 1003.50 1003.27 1003.41 1003.63
1015.53 1015.69 1015.87 1016.02 1016.14 1016.35 1016.76 1017.18 1017.58 1017.64 1017.65 1017.05 1016.96 1016.19 1015.73 1014.95 1013.88 1012.23 1010.39 1010.07 1010.00 1009.24 1008.74 1008.86 1008.74 1008.52 1008.49 1009.09 1009.49 1009.01 1007.35 1005.98 1002.90 1003.01 1002.11 1001.61 1003.08 1003.47 1003.10 1003.23 1003.86 1003.90 1003.75 1003.82 1003.73 1003.92 1003.92 1003.86 1003.93 1003.83 1003.56 1003.46 1003.37 1003.85
1015.10 1015.32 1015.47 1015.52 1015.51 1015.94 1016.53 1017.11 1017.60 1017.73 1017.52 1016.60 1016.71 1015.82 1014.49 1012.66 1010.80 1009.10 1008.17 1008.44 1008.84 1008.77 1008.94 1008.87 1008.93 1008.24 1007.68 1008.40 1009.07 1008.40 1006.25 1005.12 1004.29 1003.95 1003.63 1003.88 1003.61 1003.79 1004.18 1004.36 1004.66 1004.61 1004.48 1004.62 1004.87 1004.86 1004.94 1005.10 1005.26 1005.15 1004.72 1003.73 1004.22 1005.06
1014.90 1015.11 1015.27 1015.55 1015.72 1016.07 1016.59 1017.16 1017.60 1017.33 1016.84 1016.74 1016.34 1014.69 1012.45 1010.52 1009.20 1009.29 1008.71 1008.56 1008.33 1008.83 1008.79 1008.61 1008.42 1007.87 1007.76 1007.95 1008.02 1006.78 1006.19 1005.31 1004.82 1004.37 1004.96 1005.14 1005.07 1005.02 1005.11 1005.35 1005.47 1005.33 1005.09 1004.65 1004.79 1005.41 1005.74 1006.05 1006.24 1006.11 1005.82 1005.40 1006.04 1006.61
1014.78 1015.04 1015.10 1015.40 1015.89 1016.36 1016.88 1017.45 1017.55 1017.16 1016.60 1016.10 1015.16 1013.81 1012.39 1011.47 1010.60 1010.30 1009.92 1009.58 1009.30 1008.92 1008.85 1008.42 1008.07 1007.30 1007.46 1007.66 1006.75 1005.64 1005.03 1004.86 1004.97 1005.16 1005.44 1005.63 1005.69 1005.91 1006.06 1006.07 1006.14 1005.95 1005.36 1005.09 1005.08 1005.67 1006.35 1006.61 1006.74 1007.06 1007.15 1007.33 1007.73 1008.18
1014.71 1014.47 1015.09 1015.67 1016.19 1016.65 1016.95 1016.88 1016.72 1016.13 1015.17 1014.24 1013.41 1012.78 1012.72 1012.57 1011.67 1010.94 1010.44 1009.58 1009.35 1009.03 1008.11 1007.49 1006.58 1005.45 1006.15 1005.62 1004.85 1004.71 1004.64 1004.93 1004.96 1005.42 1005.72 1006.18 1006.01 1006.15 1006.33 1006.24 1006.25 1006.25 1006.29 1006.26 1006.24 1006.24 1006.62 1007.07 1007.48 1007.89 1008.40 1008.85 1009.23 1009.43
1014.45 1014.70 1015.45 1015.96 1016.27 1016.78 1016.96 1017.10 1016.14 1015.45 1014.33 1013.38 1012.75 1012.67 1012.63 1012.32 1011.73 1010.68 1010.60 1010.13 1009.68 1008.63 1007.63 1006.60 1006.07 1005.03 1004.56 1004.77 1004.97 1005.44 1005.55 1005.35 1005.35 1006.26 1006.75 1006.78 1006.67 1006.68 1006.71 1006.60 1006.67 1006.61 1006.65 1006.70 1006.81 1007.06 1007.23 1007.53 1007.96 1008.43 1009.04 1009.49 1009.80 1010.36
1014.17 1014.89 1015.77 1016.06 1016.02 1016.28 1016.40 1016.27 1015.72 1014.35 1013.33 1013.24 1012.98 1012.60 1012.32 1011.69 1011.07 1010.80 1010.48 1009.94 1009.46 1008.70 1008.06 1006.66 1006.08 1005.99 1006.02 1006.18 1006.24 1006.18 1006.02 1006.19 1006.65 1007.25 1007.33 1007.48 1007.44 1007.29 1007.08 1007.04 1006.95 1006.94 1007.12 1007.09 1007.14 1007.52 1007.82 1007.99 1008.68 1009.16 1009.89 1010.57 1010.87 1011.34
1015.05 1015.63 1016.00 1016.27 1016.44 1015.90 1014.78 1014.05 1013.90 1013.37 1012.95 1012.63 1012.48 1012.02 1011.63 1011.00 1010.44 1010.14 1009.56 1009.12 1008.89 1008.52 1008.00 1007.67 1007.45 1007.32 1007.03 1006.79 1006.46 1006.41 1006.59 1007.04 1007.41 1007.62 1007.91 1008.22 1008.19 1007.89 1007.54 1007.36 1007.30 1007.24 1007.25 1007.32 1007.65 1007.99 1008.14 1008.37 1008.73 1009.21 1010.05 1010.80 1010.99 1011.29
1015.48 1016.13 1016.47 1016.44 1016.03 1015.65 1014.71 1013.61 1013.09 1012.64 1012.36 1012.37 1012.15 1011.69 1010.84 1010.43 1009.81 1009.35 1008.88 1009.13 1008.90 1008.91 1008.75 1008.87 1008.44 1007.94 1007.49 1007.27 1006.94 1007.21 1007.41 1007.65 1007.83 1007.97 1008.31 1008.85 1008.49 1007.98 1007.31 1006.93 1007.14 1007.59 1007.56 1007.67 1007.64 1008.13 1008.24 1007.99 1008.75 1009.18 1009.67 1010.03 1009.62 1009.90
1015.41 1015.99 1015.90 1015.93 1015.47 1014.49 1013.69 1013.12 1012.66 1012.24 1012.28 1011.89 1011.29 1010.73 1009.76 1009.15 1009.17 1008.98 1008.87 1009.19 1009.95 1010.27 1010.09 1009.74 1009.08 1008.53 1008.09 1007.88 1007.85 1007.88 1008.14 1008.25 1008.37 1008.72 1009.03 1009.06 1008.71 1007.74 1007.45 1007.22 1007.11 1007.28 1007.38 1007.41 1007.61 1007.91 1008.43 1008.44 1008.57 1008.57 1009.10 1009.63 1009.79 1010.19
1015.55 1015.57 1015.32 1015.13 1014.75 1014.05 1013.34 1012.74 1012.03 1011.79 1011.51 1011.16 1010.60 1010.02 1009.51 1009.13 1009.30 1009.32 1009.66 1010.23 1010.52 1010.48 1010.21 1010.05 1009.51 1008.98 1008.76 1008.62 1008.34 1008.30 1008.52 1008.55 1008.68 1009.20 1009.03 1009.09 1008.63 1008.12 1008.01 1007.97 1007.88 1007.68 1007.65 1007.93 1007.91 1007.93 1008.46 1009.10 1009.20 1009.01 1009.65 1009.86 1010.52 1010.63
1015.61 1015.39 1015.03 1014.51 1014.10 1013.57 1013.15 1012.25 1011.83 1011.52 1011.29 1010.89 1010.48 1010.03 1009.28 1008.93 1009.02 1009.16 1010.12 1010.61 1010.62 1010.16 1009.81 1009.50 1009.34 1009.16 1009.25 1009.17 1009.01 1008.62 1008.61 1008.75 1009.09 1009.18 1008.83 1008.12 1008.25 1008.41 1008.36 1008.30 1008.24 1008.28 1008.41 1008.45 1008.60 1008.76 1009.04 1009.33 1009.53 1009.60 1010.28 1010.47 1010.31 1010.25
1015.87 1015.28 1014.96 1013.75 1012.96 1012.39 1011.35 1010.85 1010.64 1010.42 1009.97 1009.11 1008.76 1008.71 1008.84 1008.75 1009.06 1010.17 1010.86 1011.17 1010.80 1010.37 1009.86 1009.62 1009.40 1009.34 1009.33 1009.50 1009.42 1009.65 1009.96 1009.29 1008.51 1008.24 1008.24 1007.83 1007.70 1007.73 1008.15 1008.61 1008.97 1008.94 1008.72 1008.85 1009.14 1009.27 1009.47 1009.61 1009.82 1010.02 1010.27 1010.53 1010.81 1010.92
1014.70 1013.23 1012.93 1010.68 1009.64 1009.59 1009.02 1008.82 1008.77 1008.55 1008.21 1008.21 1008.42 1008.68 1008.75 1009.43 1010.52 1010.89 1011.20 1011.39 1011.06 1010.73 1010.48 1010.16 1009.98 1009.97 1009.95 1009.54 1009.18 1009.13 1009.25 1009.20 1009.37 1008.93 1008.37 1008.24 1008.16 1008.06 1008.28 1008.61 1008.83 1009.47 1009.48 1009.55 1009.64 1009.85 1010.01 1010.22 1010.51 1010.75 1010.98 1011.63 1012.00 1011.46
1012.59 1011.12 1010.28 1008.97 1008.19 1007.74 1007.66 1007.53 1007.45 1007.76 1007.88 1008.15 1008.35 1008.56 1009.11 1010.24 1011.19 1011.73 1011.63 1011.40 1011.05 1010.71 1010.54 1010.52 1010.03 1009.72 1009.54 1009.37 1009.28 1009.29 1009.22 1009.34 1009.44 1009.36 1009.23 1009.26 1009.30 1009.42 1009.47 1009.59 1009.93 1010.35 1010.18 1010.24 1010.33 1010.44 1010.58 1010.72 1010.86 1011.04 1011.15 1011.35 1011.60 1011.71
1011.64 1011.12 1010.44 1009.71 1008.94 1008.71 1008.65 1008.25 1008.30 1008.63 1008.46 1008.67 1008.73 1009.57 1010.54 1011.39 1011.81 1011.66 1011.53 1011.26 1011.29 1010.80 1010.06 1010.39 1010.41 1010.04 1010.19 1010.26 1009.52 1009.26 1009.36 1009.53 1009.73 1009.50 1009.41 1009.55 1009.94 1010.23 1010.35 1010.55 1011.23 1011.70 1011.58 1011.91 1011.59 1011.15 1011.29 1011.43 1011.43 1011.42 1011.45 1011.37 1011.50 1011.67
1011.84 1011.22 1010.47 1009.77 1009.54 1009.56 1009.54 1009.35 1009.08 1009.08 1009.27 1008.94 1009.42 1009.94 1010.61 1011.29 1011.32 1011.27 1011.22 1010.89 1010.39 1009.98 1009.70 1009.67 1009.70 1009.64 1009.69 1009.93 1010.09 1010.01 1009.95 1009.68 1009.40 1009.38 1009.44 1009.14 1009.20 1010.06 1010.57 1010.59 1010.54 1010.80 1010.98 1011.90 1012.69 1012.62 1012.82 1012.57 1012.52 1012.19 1011.91 1011.71 1011.67 1011.59
1010.89 1010.18 1009.91 1009.79 1009.74 1010.12 1010.31 1009.96 1009.61 1009.47 1009.19 1009.32 1009.64 1009.88 1009.99 1010.25 1010.52 1010.67 1010.28 1010.24 1009.70 1009.77 1009.89 1009.84 1009.71 1009.57 1009.65 1009.59 1010.09 1010.66 1010.89 1010.92 1010.70 1010.35 1010.12 1010.33 1010.69 1011.05 1010.95 1010.88 1010.91 1010.90 1011.10 1011.29 1011.28 1011.95 1012.86 1012.70 1012.48 1012.55 1012.10 1011.67 1011.43 1011.84
1011.23 1010.90 1010.58 1010.43 1010.51 1010.44 1010.43 1010.40 1010.33 1010.09 1009.77 1009.77 1009.79 1010.05 1010.16 1010.16 1010.30 1010.42 1010.25 1010.22 1009.87 1009.75 1009.72 1009.86 1010.10 1010.48 1010.49 1010.58 1010.64 1010.52 1011.21 1011.76 1012.12 1012.17 1011.83 1011.48 1011.60 1011.83 1011.77 1011.65 1011.47 1011.51 1011.59 1011.67 1011.62 1011.64 1012.08 1011.97 1011.76 1011.83 1011.72 1011.95 1011.92 1012.01
1010.94 1010.90 1010.76 1010.80 1010.99 1010.86 1010.75 1010.67 1010.48 1010.39 1010.27 1010.00 1009.78 1009.40 1009.40 1009.46 1009.66 1010.17 1010.71 1010.38 1009.94 1009.69 1010.91 1010.66 1010.27 1010.85 1011.21 1011.49 1011.82 1012.21 1012.50 1012.24 1012.42 1012.77 1012.85 1012.61 1012.55 1012.49 1012.11 1012.05 1012.01 1012.07 1011.97 1011.77 1011.70 1011.69 1011.82 1012.02 1011.85 1011.96 1011.94 1011.88 1012.02 1012.00
1011.13 1011.09 1010.99 1010.90 1010.98 1010.86 1010.63 1010.33 1010.03 1009.85 1009.50 1009.25 1009.24 1009.01 1009.20 1009.31 1009.82 1010.28 1010.80 1010.89 1010.75 1010.34 1010.34 1010.82 1010.97 1011.55 1012.08 1011.96 1012.17 1012.49 1012.71 1013.21 1013.76 1013.98 1014.14 1014.23 1014.23 1014.04 1013.51 1012.53 1012.55 1012.40 1012.24 1012.01 1011.85 1011.79 1011.83 1012.03 1011.97 1012.08 1012.07 1011.99 1011.95 1011.91
Thickness
5484 5488 5491 5495 5497 5500 5503 5507 5510 5513 5516 5519 5524 5529 5531 5535 5539 5546 5571 5574 5581 5596 5614 5617 5622 5624 5634 5639 5643 5652 5658 5661 5662 5658 5667 5680 5686 5699 5700 5705 5700 5689 5679 5680 5686 5680 5676 5712 5702 5683 5685 5691 5692 5690
5473 5477 5482 5485 5488 5492 5495 5497 5500 5503 5505 5508 5512 5516 5520 5524 5526 5531 5554 5563 5562 5566 5593 5599 5604 5610 5615 5620 5623 5633 5640 5642 5659 5659 5666 5673 5675 5689 5689 5682 5702 5674 5688 5685 5690 5678 5689 5694 5688 5692 5691 5684 5683 5680
5463 5467 5472 5476 5479 5482 5486 5489 5491 5493 5496 5498 5501 5505 5509 5513 5514 5517 5535 5542 5545 5559 5578 5594 5600 5609 5611 5608 5612 5609 5623 5630 5634 5640 5640 5655 5659 5681 5674 5684 5682 5689 5689 5673 5674 5687 5685 5688 5685 5688 5684 5678 5678 5679
5452 5456 5460 5464 5469 5472 5475 5479 5481 5484 5486 5489 5491 5494 5499 5502 5503 5506 5521 5531 5536 5547 5563 5592 5603 5598 5605 5606 5605 5604 5603 5610 5610 5613 5618 5630 5642 5665 5661 5677 5679 5690 5683 5669 5669 5671 5677 5679 5682 5679 5676 5671 5668 5671
5441 5444 5448 5453 5457 5461 5465 5469 5471 5473 5476 5479 5481 5484 5488 5491 5493 5496 5507 5516 5521 5527 5546 5565 5577 5585 5592 5593 5592 5595 5594 5590 5591 5592 5591 5603 5627 5639 5651 5658 5663 5678 5671 5662 5658 5671 5670 5668 5675 5672 5665 5663 5662 5664
5432 5434 5437 5442 5446 5450 5453 5458 5461 5463 5465 5469 5471 5473 5477 5480 5482 5490 5510 5517 5513 5517 5525 5552 5586 5584 5585 5588 5587 5581 5584 5582 5580 5583 5587 5593 5616 5620 5615 5628 5654 5663 5669 5667 5660 5669 5667 5666 5661 5657 5655 5657 5659 5662
5425 5427 5428 5432 5437 5441 5445 5448 5451 5453 5455 5457 5460 5463 5466 5469 5473 5486 5490 5488 5493 5502 5511 5541 5571 5588 5581 5580 5581 5578 5573 5574 5570 5569 5572 5580 5598 5608 5611 5615 5644 5658 5658 5654 5655 5655 5650 5651 5650 5656 5657 5657 5656 5657
5418 5419 5420 5423 5428 5432 5435 5438 5441 5443 5445 5447 5449 5453 5456 5458 5462 5476 5489 5485 5482 5492 5502 5527 5553 5565 5578 5571 5566 5572 5567 5564 5562 5555 5566 5571 5588 5597 5580 5621 5636 5644 5647 5649 5650 5653 5653 5652 5652 5652 5654 5654 5651 5653
5412 5412 5413 5415 5420 5425 5427 5431 5433 5436 5438 5439 5441 5444 5449 5454 5466 5483 5484 5476 5475 5478 5486 5521 5540 5545 5559 5560 5567 5566 5567 5549 5559 5564 5566 5567 5571 5580 5610 5622 5630 5638 5638 5638 5645 5648 5648 5648 5648 5650 5651 5650 5650 5651
5408 5408 5409 5411 5415 5419 5422 5425 5428 5430 5432 5433 5436 5446 5453 5469 5467 5470 5471 5472 5470 5477 5475 5491 5519 5529 5543 5536 5540 5552 5565 5539 5547 5569 5578 5582 5589 5605 5620 5634 5633 5634 5632 5632 5629 5631 5638 5642 5641 5642 5647 5651 5652 5652
5406 5406 5408 5410 5413 5416 5419 5421 5423 5424 5424 5432 5440 5455 5454 5456 5465 5468 5474 5479 5488 5481 5489 5510 5518 5530 5543 5536 5537 5554 5552 5565 5557 5586 5583 5577 5583 5614 5623 5622 5627 5628 5626 5628 5631 5632 5635 5635 5634 5637 5641 5644 5650 5647
5406 5407 5409 5410 5412 5414 5416 5418 5419 5422 5430 5432 5439 5441 5445 5457 5466 5475 5486 5494 5497 5513 5529 5526 5532 5534 5542 5536 5526 5538 5516 5535 5553 5575 5590 5601 5593 5626 5625 5623 5623 5622 5622 5625 5628 5628 5629 5630 5632 5634 5636 5638 5639 5639
5407 5409 5410 5412 5414 5415 5415 5415 5416 5418 5420 5429 5438 5449 5456 5465 5470 5489 5508 5513 5512 5525 5531 5528 5527 5534 5539 5535 5530 5537 5555 5564 5595 5600 5605 5617 5599 5597 5607 5611 5607 5612 5616 5618 5621 5622 5625 5626 5628 5630 5631 5637 5639 5635
5410 5411 5412 5415 5417 5416 5415 5414 5413 5414 5420 5433 5431 5441 5463 5482 5503 5521 5530 5525 5525 5528 5528 5529 5524 5537 5549 5539 5528 5535 5571 5581 5580 5581 5586 5588 5597 5600 5599 5601 5600 5601 5607 5607 5605 5609 5609 5609 5608 5611 5615 5629 5626 5619
5411 5412 5413 5413 5414 5414 5413 5411 5411 5415 5425 5424 5432 5453 5487 5508 5522 5520 5528 5529 5533 5529 5531 5534 5539 5546 5545 5543 5545 5563 5562 5567 5574 5573 5575 5578 5585 5589 5590 5591 5591 5595 5599 5605 5605 5601 5600 5598 5596 5597 5601 5607 5608 5605
5413 5413 5415 5415 5414 5414 5413 5413 5415 5422 5431 5437 5451 5466 5487 5496 5504 5508 5513 5516 5524 5530 5532 5540 5540 5549 5543 5544 5557 5571 5576 5559 5574 5578 5579 5581 5581 5580 5580 5582 5580 5588 5597 5602 5604 5601 5595 5592 5594 5591 5591 5590 5591 5588
5417 5423 5421 5420 5419 5419 5420 5424 5429 5438 5453 5466 5475 5484 5485 5483 5493 5503 5509 5521 5526 5530 5539 5549 5556 5567 5564 5571 5580 5572 5578 5579 5584 5583 5582 5577 5579 5578 5579 5579 5582 5586 5588 5591 5593 5595 5594 5592 5590 5587 5580 5578 5578 5578
5426 5427 5426 5425 5426 5425 5427 5429 5442 5451 5465 5481 5489 5489 5488 5492 5499 5515 5513 5520 5526 5538 5550 5559 5568 5577 5583 5581 5580 5576 5579 5584 5586 5577 5571 5572 5576 5577 5578 5579 5581 5585 5586 5588 5589 5588 5589 5588 5585 5582 5579 5577 5575 5571
5437 5435 5432 5433 5436 5437 5438 5443 5451 5464 5480 5481 5484 5488 5494 5503 5512 5515 5518 5527 5534 5544 5551 5565 5569 5569 5569 5569 5567 5572 5575 5575 5572 5567 5571 5570 5572 5575 5578 5580 5583 5584 5584 5586 5587 5584 5582 5584 5578 5576 5570 5565 5561 5557
5441 5440 5439 5439 5442 5450 5466 5474 5475 5483 5486 5493 5494 5502 5508 5515 5524 5528 5536 5542 5545 5549 5554 5555 5558 5560 5563 5569 5574 5576 5576 5572 5568 5568 5568 5568 5569 5573 5578 5581 5582 5584 5585 5586 5584 5581 5581 5579 5578 5575 5568 5561 5558 5556
5446 5443 5443 5445 5452 5457 5469 5478 5486 5493 5498 5499 5502 5505 5519 5524 5533 5539 5545 5544 5548 5550 5552 5552 5555 5562 5569 5572 5577 5574 5572 5571 5570 5571 5569 5562 5571 5576 5584 5589 5587 5580 5581 5581 5582 5578 5579 5583 5576 5574 5570 5566 5571 5570
5458 5455 5459 5460 5465 5477 5486 5490 5498 5503 5501 5505 5514 5516 5527 5542 5543 5547 5551 5551 5541 5539 5543 5548 5556 5562 5567 5570 5571 5573 5571 5572 5572 5569 5566 5565 5568 5580 5582 5585 5586 5584 5585 5585 5583 5580 5576 5578 5578 5578 5573 5568 5567 5563
5466 5467 5472 5475 5480 5485 5494 5501 5508 5512 5514 5517 5529 5535 5539 5545 5546 5549 5542 5540 5540 5543 5546 5549 5556 5564 5565 5568 5572 5573 5571 5571 5570 5565 5568 5566 5573 5579 5579 5579 5581 5581 5581 5580 5582 5581 5576 5568 5571 5573 5567 5565 5557 5555
5475 5479 5483 5488 5490 5495 5498 5508 5511 5515 5519 5528 5531 5534 5548 5555 5558 5557 5546 5543 5546 5552 5556 5559 5561 5563 5563 5564 5565 5571 5572 5572 5567 5566 5570 5579 5576 5575 5577 5578 5579 5579 5577 5577 5576 5575 5573 5569 5566 5566 5559 5555 5555 5555
5481 5488 5487 5493 5506 5509 5523 5530 5531 5534 5539 5553 5558 5559 5557 5564 5559 5545 5540 5541 5548 5552 5557 5560 5563 5564 5563 5561 5564 5562 5560 5567 5575 5576 5578 5582 5583 5584 5579 5575 5572 5573 5576 5573 5570 5569 5567 5566 5562 5559 5555 5551 5547 5544
5492 5519 5512 5542 5550 5546 5554 5553 5555 5559 5566 5565 5564 5565 5567 5559 5543 5542 5545 5544 5548 5551 5554 5557 5558 5556 5555 5565 5568 5568 5569 5572 5567 5570 5577 5580 5580 5579 5576 5573 5571 5567 5570 5569 5566 5562 5560 5558 5554 5550 5546 5537 5527 5535
5526 5541 5549 5564 5568 5573 5572 5575 5576 5572 5568 5565 5567 5567 5563 5550 5542 5538 5545 5548 5550 5555 5557 5557 5562 5563 5565 5568 5570 5572 5574 5573 5570 5570 5573 5572 5572 5571 5570 5567 5563 5561 5564 5562 5560 5558 5554 5551 5548 5545 5541 5538 5533 5530
5541 5544 5542 5551 5559 5566 5561 5567 5565 5560 5566 5568 5567 5553 5544 5539 5536 5545 5547 5551 5552 5558 5565 5562 5562 5567 5564 5563 5572 5574 5573 5572 5570 5572 5573 5572 5568 5565 5564 5561 5555 5546 5550 5546 5548 5550 5547 5544 5542 5539 5536 5534 5531 5527
5537 5545 5551 5553 5556 5555 5556 5558 5561 5564 5565 5567 5558 5553 5551 5549 5552 5552 5554 5559 5565 5567 5567 5568 5569 5572 5571 5569 5568 5569 5570 5572 5571 5568 5566 5570 5570 5563 5560 5559 5559 5556 5554 5544 5531 5533 5531 5531 5530 5530 5529 5528 5525 5524
5553 5562 5558 5556 5555 5550 5553 5561 5565 5569 5573 5572 5569 5566 5566 5564 5564 5565 5567 5566 5570 5568 5568 5569 5570 5571 5570 5571 5567 5562 5563 5562 5563 5564 5563 5560 5556 5555 5555 5554 5553 5553 5550 5547 5545 5537 5524 5525 5525 5523 5524 5523 5522 5515
5556 5557 5557 5558 5554 5559 5561 5563 5564 5567 5571 5569 5570 5564 5562 5566 5567 5569 5569 5569 5572 5572 5572 5570 5568 5566 5565 5564 5563 5564 5557 5554 5550 5549 5551 5553 5550 5547 5546 5547 5547 5545 5543 5540 5538 5536 5531 5529 5528 5524 5522 5516 5513 5509
5563 5560 5560 5555 5555 5561 5564 5561 5563 5563 5564 5566 5567 5574 5574 5571 5566 5566 5566 5569 5571 5573 5561 5564 5568 5562 5561 5558 5555 5550 5545 5549 5546 5543 5541 5543 5542 5542 5544 5542 5540 5538 5536 5535 5533 5531 5528 5523 5522 5518 5515 5513 5508 5506
5560 5560 5561 5560 5558 5558 5564 5567 5569 5569 5574 5574 5574 5578 5576 5574 5565 5568 5569 5569 5568 5570 5570 5565 5564 5559 5553 5553 5550 5546 5543 5539 5532 5528 5527 5524 5522 5523 5528 5536 5533 5531 5529 5528 5527 5525 5522 5518 5516 5512 5509 5508 5505 5503